Flag for Canada Weather past 2 weeks in Selkirk, Manitoba, Canada

Now
68 °F

Mild.


Feels Like: 68 °F
Forecast: 54 / 81 °F
Wind: 3 mph from Northwest

Location: Winnipeg The Forks

Current Time: Jul 29, 2014 at 12:27:13 AM

Latest Report: Jul 28, 2014 at 11:00 PM


Visibility: N/A

Pressure: 30.16 "Hg

Humidity: 55%

Dew point: 51 °F

Location of SelkirkLocation

Historic Weather in Selkirk — Graph

°F

Selkirk temperature yesterday

Maximum temperature yesterday: 76 °F (at 6:00 PM)
Minimum temperature yesterday: 56 °F (at 5:00 AM)
Average temperature yesterday: 67 °F

Past Weeks' High & Low Weather Summary

 TemperatureHumidityPressure
High88 °F (Jul 20, 3:00 PM)95% (Jul 15, 5:00 AM)30.33 "Hg (Jul 15, 5:00 AM)
Low49 °F (Jul 14, 3:00 AM)28% (Jul 25, 5:00 PM)29.49 "Hg (Jul 20, 2:00 PM)
Average68 °F64%29.92 "Hg
* Reported Jul 13 11:00 PM — Jul 28 11:00 PM, Selkirk, Weather by CustomWeather, © 2014

Note: Actual official high and low records may vary slightly from our data, if they occured in-between our weather recording intervals... More about our weather records

Advertising

Selkirk weather history for previous 24 hours

 ConditionsComfort  
Time TempWeatherWind HumidityBarometerVisibility
11:00 PM
Jul 28
68 °FMild.3 mph55%30.16 "HgN/A
10:00 PM69 °FMild.2 mph59%30.17 "HgN/A
9:00 PM71 °FMild.5 mph54%30.17 "HgN/A
8:00 PM73 °FMild.3 mph48%30.16 "HgN/A
7:00 PM75 °FMild.5 mph45%30.17 "HgN/A
6:00 PM76 °FMild.5 mph42%30.18 "HgN/A
5:00 PM75 °FMild.7 mph41%30.19 "HgN/A
4:00 PM74 °FMild.5 mph45%30.20 "HgN/A
3:00 PM76 °FMild.3 mph39%30.22 "HgN/A
2:00 PM74 °FMild.5 mph45%30.22 "HgN/A
1:00 PM74 °FMild.5 mph45%30.23 "HgN/A
12:00 PM72 °FMild.6 mph47%30.26 "HgN/A
11:00 AM70 °FMild.7 mph51%30.27 "HgN/A
10:00 AM67 °FMild.6 mph55%30.27 "HgN/A
9:00 AM64 °FMild.6 mph59%30.27 "HgN/A
8:00 AM61 °FCool.2 mph67%30.26 "HgN/A
7:00 AM58 °FCool.2 mph78%30.26 "HgN/A
6:00 AM56 °FCool.2 mph76%30.24 "HgN/A
5:00 AM56 °FCool.1 mph81%30.24 "HgN/A
4:00 AM58 °FCool.3 mph72%30.23 "HgN/A
3:00 AM58 °FCool.3 mph77%30.23 "HgN/A
2:00 AM60 °FCool.5 mph70%30.22 "HgN/A
1:00 AM62 °FCool.6 mph62%30.22 "HgN/A
12:00 AM64 °FMild.2 mph60%30.21 "HgN/A
Weather by CustomWeather, © 2014

See weather overviewHow to use our weather pages